Regional Weather Roundup
Issued by NWS Goodland, KS

Home | Current Version | Previous Version | Text Only | Print | Product List | Glossary On
Versions: 1 2 3 4 5 6 7 8 9 10 11 12 13 14 15 16 17 18 19 20 21 22 23 24 25 26 27 28 29 30 31 32 33 34 35 36 37 38 39 40 41 42 43 44 45 46 47 48 49 50
000
ASUS43 KGLD 272208
RWRGLD

GOODLAND FORECAST AREA HOURLY WEATHER ROUNDUP
NATIONAL WEATHER SERVICE GOODLAND KS
400 PM MDT MON APR 27 2015

...OFFICIAL OBSERVATIONS...

CITY           SKY/WX    TMP DP  RH WIND       PRES   REMARKS
GOODLAND KS    MOSUNNY   58  31  35 NE15G24   30.18F
HILL CITY KS   PTSUNNY   63  33  32 NE21      30.14F
IMPERIAL NEB   CLOUDY    60  31  33 NE13G21   30.19F
MCCOOK NEB     PTSUNNY   66  33  29 NE13      30.16F
AKRON CO       PTSUNNY   53  35  50 N12       30.24S
BURLINGTON CO  MOSUNNY   57  32  38 NE23G30   30.19F
LIMON CO       CLOUDY    49  33  54 N18       30.23F
$$

...UNOFFICIAL OBSERVATIONS...

CITY           SKY/WX    TMP DP  RH WIND       PRES   REMARKS
COLBY KS       SUNNY     63  34  34 NE17G25   30.17F
GOVE KS          N/A     62  32  32 MISG        N/A
LENORA KS        N/A     62  32  32 MISG        N/A
NORTON KS      SUNNY     63  27  25 NE14G22   30.14F
SHARON SPRINGS   N/A     57  37  47 E23         N/A
TRIBUNE KS     CLOUDY    57  39  51 N23G29    30.17S
KIT CARSON CO    N/A     55  35  46 MISG        N/A
YUMA CO          N/A     56  36  47 NE10        N/A
$$


USA.gov is the U.S. government's official web portal to all federal, state and local government web resources and services.